Weather in Valy

Russia / Samara Oblast     53°19′28″N   49°24′19″E
temp.,
°C
wind,
m/s
gust,
m/s
humid.,
%
clouds,
%
prec.,
mm/h
press.,
hPa
HPBL,
m
21 october, thu
thu2101:00+1wnw49825 0.1 1020356
04:00−1wsw2478100 0.1 102099
07:000ssw31076100 0.0 1019281
10:00+2ssw71268100 0.0 1016853
13:00+1ssw81797100 2.4 1013733
16:00+2ssw91693100 5.4 1010740
19:00+5sw81780100 0.5 1007624
22:00+7sw61486100 0.5 1006510
22 october, fri
fri2201:00+8wsw61591100 0.1 1006506
04:00+8sw51288100 0.4 1006311
07:00+7ssw51388100 0.0 1006321
10:00+9sw81675100 0.0 1005649
13:00+12sw81558100 0.0 1005839
16:00+12sw81561100 0.0 1005910
19:00+11sw7157186 0.0 1007574
22:00+11wsw7157395 0.0 1008648
23 october, sat
sat2301:00+10wsw5128527 0.0 1010346
04:00+8sw4119287 0.0 1011257
07:00+7sw310941 0.0 1012231
10:00+9wsw612771 0.0 1013548
13:00+13wsw713445 0.0 10131439
16:00+13sw61150100 0.0 1013840
19:00+12ssw41158100 0.0 1013306
22:00+12ssw41363100 0.1 1011503
24 october, sun
sun2401:00+10sw51193100 2.2 1010623
04:00+10sw4984100 4.0 1009373
07:00+7wnw4118411 0.5 1010418
10:00+8w69670 0.5 1012723
13:00+9w67545 0.0 10131112
16:00+9w465216 0.0 10131299
19:00+6w23649 0.0 101444
22:00+6nw3667100 0.0 1015389
25 october, mon
mon2501:00+6wnw2359100 0.0 1016123
04:00+6wsw006087 0.0 101511
07:00+4wsw227076 0.0 101615
10:00+5nw4572100 0.0 1018629
13:00+6nw466220 0.0 10191119
16:00+5nnw896399 0.2 10201246
19:00+3n8116580 0.1 10241343
22:00+1n711615 0.1 1026899